Location: Duvall Cemetery
(44.6814°N, 87.7115°W)
Time: 20:33:01
(UTC+00:00)

Daily predictions for brighter satellites

Satellite Brightness Start Highest point End
(mag) Time Altitude Azimuth Time Altitude Azimuth Time Altitude Azimuth
Cosmos 2221 2.5 12:02:53 10° N 12:07:02 77° E 12:11:10 10° SSE
Cosmos 2266 Rocket 4.4 12:01:46 10° S 12:08:06 73° E 12:14:25 10° NNE
Orbus 7S? 2.7 12:08:50 18° NW 12:10:34 66° NE 12:13:37 10° SE
Cosmos 1125 Rocket 3.7 12:06:52 10° NNW 12:12:08 73° ENE 12:17:20 10° SSE
Cosmos 1484 Rocket 2.8 12:09:15 10° N 12:12:28 39° WNW 12:15:38 10° SW
Cosmos 192 4.3 12:09:03 10° NNW 12:14:00 88° ENE 12:18:54 10° SSE
Cosmos 1758 Rocket 3.7 12:11:00 10° SSW 12:15:18 52° WNW 12:19:37 10° N
Cosmos 1437 Rocket 2.5 12:17:28 10° N 12:20:56 82° E 12:24:23 10° SSE
Helios 1A Rocket 4.2 12:23:23 10° SW 12:25:24 15° W 12:26:49 12° WNW
ISS -0.7 12:24:12 10° S 12:26:40 19° SE 12:29:09 10° E
Cosmos 2360 Rocket 2.8 12:23:25 10° NW 12:28:31 36° WSW 12:33:34 10° S
[s.n.66876] 4.5 12:29:09 10° S 12:30:38 14° SSE 12:32:08 10° ESE
[s.n.66874] 4.5 12:29:55 10° S 12:31:26 14° SSE 12:32:57 10° ESE
CZ-2D R/B 2.7 12:28:23 10° NNE 12:31:34 85° WNW 12:34:44 10° SSW
[s.n.66872] 4.4 12:30:42 10° S 12:32:13 15° SSE 12:33:46 10° ESE
[s.n.66871] 4.4 12:31:13 10° S 12:32:47 15° SSE 12:34:19 10° ESE
[s.n.66870] 4.4 12:32:01 10° SSW 12:33:35 15° SSE 12:35:10 10° ESE
ATLAS 3B R/B 3.5 12:26:04 10° NNW 12:33:49 57° NE 12:41:09 10° ESE
[s.n.66869] 4.4 12:32:47 10° SSW 12:34:22 15° SSE 12:35:59 10° ESE
Cosmos 2333 Rocket 3.4 12:30:09 10° NW 12:34:31 23° W 12:38:50 10° SSW
Cosmos 1833 4.5 12:29:45 10° SW 12:35:09 46° WNW 12:40:38 10° NNE
[s.n.66867] 4.4 12:34:10 10° SSW 12:35:47 15° SSE 12:37:25 10° ESE
COSMO-SKYMED 1 4.2 12:34:04 10° WSW 12:36:16 14° W 12:38:28 10° WNW
[s.n.66866] 4.4 12:34:53 10° SSW 12:36:31 16° SSE 12:38:11 10° ESE
Cosmos 405 Rocket 3.7 12:34:10 10° WSW 12:36:32 18° WNW 12:38:55 10° NNW
[s.n.66865] 4.4 12:35:24 10° SSW 12:37:05 16° SSE 12:38:44 10° ESE
Cosmos 1707 2.1 12:34:24 10° NNW 12:37:31 64° W 12:40:37 10° S
[s.n.66860] 4.4 12:36:03 10° SSW 12:37:45 16° SSE 12:39:26 10° ESE
[s.n.66864] 4.4 12:36:40 10° SSW 12:38:22 16° SSE 12:40:04 10° ESE
BREEZE-M DEB (TANK) 3.9 12:36:00 10° WNW 12:38:50 49° NNE 12:45:58 10° E
[s.n.66863] 4.4 12:37:15 10° SSW 12:38:58 16° SSE 12:40:40 10° ESE
[s.n.66861] 4.4 12:38:03 10° SSW 12:39:47 16° SSE 12:41:31 10° ESE
[s.n.66862] 4.4 12:38:41 10° SSW 12:40:26 16° SSE 12:42:11 10° ESE
Cosmos 2237 Rocket 3.8 12:35:45 10° N 12:40:37 29° NE 12:45:28 10° ESE
[s.n.66859] 4.4 12:39:22 10° SSW 12:41:08 17° SSE 12:42:54 10° ESE
SJ-12 3.7 12:37:24 10° N 12:41:14 78° WNW 12:45:01 10° SSW
[s.n.66858] 4.4 12:40:01 10° SSW 12:41:48 17° SSE 12:43:35 10° ESE
[s.n.66857] 4.4 12:40:36 10° SSW 12:42:23 17° SSE 12:44:11 10° ESE
[s.n.66856] 4.4 12:41:08 10° SSW 12:42:56 17° SSE 12:44:44 10° ESE
[s.n.66855] 4.4 12:41:48 10° SSW 12:43:37 17° SSE 12:45:26 10° ESE
MOS 1 Rocket 3.7 12:38:24 10° NNE 12:43:48 89° W 12:49:03 10° SSW
Cosmos 2219 Rocket 2.6 12:39:52 10° NW 12:45:13 45° WSW 12:50:31 10° S
ARIANE 5 R/B 2.6 12:42:11 10° NNE 12:47:26 80° WNW 12:52:38 10° SSW
Cosmos 1607 4.0 22:30:27 10° NNW 22:36:39 64° NE 22:42:54 10° SE
SMAP 3.6 22:34:30 10° SE 22:38:47 38° ENE 22:43:06 10° N
Cosmos 1315 Rocket 4.3 22:36:34 10° SW 22:40:07 36° WNW 22:43:41 10° N
Gbstr 26 Del rocket 3.2 22:37:26 10° SW 22:41:36 52° SE 22:45:20 10° ENE
Cosmos 1626 Rocket 3.5 22:38:53 10° N 22:43:13 90° WNW 22:47:30 10° S
Landsat 7 4.4 22:39:24 10° SE 22:43:32 33° ENE 22:47:42 10° N
CBERS-1 4.0 22:39:19 10° SSE 22:44:25 77° ENE 22:49:32 10° NNW
USA 290 2.2 22:41:25 10° NNW 22:44:39 64° ENE 22:47:53 10° SSE
Cosmos 1484 Rocket 2.5 22:42:31 10° SSE 22:46:01 88° ENE 22:49:32 10° NNW
SL-08 ROCKET BODY 4.4 22:41:13 10° N 22:47:12 79° E 22:53:15 10° SSE
Meteor 1-20 Rocket 4.3 22:42:59 10° N 22:48:20 52° ENE 22:53:39 10° SSE
Lacrosse 5 rocket 3.2 22:46:21 10° NW 22:48:40 16° NNW 22:50:58 10° NNE
Cosmos 1606 Rocket 4.4 22:46:21 10° SSE 22:50:14 31° E 22:54:10 10° NNE
Cosmos 724 4.3 22:44:45 10° NNW 22:50:49 80° NE 22:56:42 10° SE
NOSS 3-2 (A) 4.1 22:52:36 10° WSW 22:57:24 41° NW 23:03:10 10° NNE
Cosmos 2297 Rocket 2.3 22:52:21 10° NNW 22:58:03 87° WSW 23:03:43 10° SSE
CZ-2D R/B 3.5 22:55:32 10° SE 22:58:18 29° ENE 23:01:04 10° N
NOSS 3-2 (C) 3.1 22:53:57 10° SW 22:58:54 88° NW 23:04:51 10° NE
Cosmos 1544 Rocket 4.0 22:55:03 10° SSW 22:59:25 65° W 23:03:50 10° N
NOSS 2-2 (E) 4.4 22:57:39 10° WSW 23:00:34 28° NW 23:03:15 10° NNE
Lacrosse 4 Rocket 4.0 23:00:14 10° NW 23:00:54 10° NW 23:01:34 10° NNW
Cosmos 2266 Rocket 3.9 22:55:15 10° N 23:01:21 63° E 23:07:19 10° SSE
CZ-4C R/B 3.0 22:54:55 10° NW 23:01:59 75° NE 23:10:43 10° SE
Thor Agena Rocket 3.6 23:02:26 10° SSE 23:07:39 88° ENE 23:12:50 10° NNW
Cosmos 1503 Rocket 4.0 23:02:39 10° SSW 23:07:55 89° E 23:13:08 10° NNE
Cosmos 1461 3.2 23:07:10 10° SW 23:11:00 57° NW 23:14:54 10° NNE
Cosmos 1726 Rocket 4.1 23:09:32 10° SSE 23:13:54 42° E 23:18:15 10° NNE
Cosmos 1743 3.3 23:12:52 10° NNW 23:16:02 49° W 23:19:09 10° S
Cosmos 1933 3.1 23:12:26 10° S 23:16:13 65° E 23:20:01 10° NNE
Cosmos 1354 Rocket 4.0 23:12:28 10° SSW 23:17:43 77° ESE 23:22:58 10° NNE
Cosmos 2219 4.1 23:13:24 10° N 23:18:16 27° NE 23:23:08 10° ESE
GEOS 3 Rocket 3.8 23:13:16 10° NE 23:18:40 83° NW 23:24:02 10° SW
Cosmos 1980 Rocket 2.8 23:15:41 10° S 23:20:49 37° ESE 23:25:04 14° NE
Okean 1-7 Rocket 3.5 23:17:14 10° N 23:21:39 83° E 23:26:00 10° S
Cosmos 1602 Rocket 4.0 23:17:54 10° NNW 23:22:15 65° W 23:26:32 10° S
SJ-12 3.6 23:19:57 10° SSE 23:23:41 67° ENE 23:27:27 10° N
Cosmos 1844 Rocket 4.5 23:21:46 10° NNE 23:23:57 12° NE 23:23:58 12° NE
Cosmos-2242 4.1 23:20:59 10° SE 23:24:19 23° E 23:25:43 19° ENE
CORIOLIS 4.4 23:20:30 10° S 23:25:49 74° WSW 23:31:11 10° NNW
YAOGAN 1 3.5 23:23:06 10° ESE 23:26:33 25° ENE 23:30:01 10° NNE
IRIDIUM 104 4.5 23:21:51 10° N 23:27:05 78° W 23:32:17 10° S
Cosmos 1898 Rocket 4.4 23:24:10 10° SSE 23:28:29 28° E 23:30:53 20° ENE
Meteor 1-5 Rocket 4.2 23:23:28 10° N 23:28:44 57° ENE 23:34:08 10° SSE
Meteor 1-25 Rocket 4.3 23:23:52 10° N 23:29:44 88° E 23:35:29 10° S
SKYMED 2 4.1 23:27:41 14° NNE 23:31:03 37° E 23:35:04 10° SSE
Cosmos 2263 Rocket 2.4 23:27:03 10° NNW 23:32:32 47° ENE 23:37:59 10° SE
ERS-1 4.4 23:27:41 10° SSE 23:32:41 78° ENE 23:37:39 10° NNW
Cosmos 2151 3.9 23:28:39 10° NNW 23:32:41 50° W 23:36:42 10° S
SAR-Lupe-4 3.5 23:30:03 10° SSE 23:33:36 84° WSW 23:37:11 10° NNW
SL-16 R/B 3.7 23:28:35 10° N 23:34:24 43° WNW 23:40:09 10° SW
CENTAUR R/B 4.3 23:34:51 10° WNW 23:39:41 22° NNW 23:45:19 10° NNE
Cosmos 372 Rocket 4.3 23:34:56 10° S 23:39:47 43° ESE 23:42:48 21° NE
IRS-1C 4.4 23:37:28 10° S 23:42:46 74° WSW 23:48:07 10° NNW
NOSS 2-3 (C) 2.8 23:40:11 10° SSW 23:43:39 77° SE 23:45:08 32° NE
SAR-Lupe-1 4.3 23:41:08 10° S 23:44:43 71° WSW 23:48:20 10° NNW
Cosmos 1953 Rocket 3.5 23:41:50 10° N 23:46:15 64° E 23:50:39 10° SSE
Cosmos 1937 Rocket 4.3 23:42:27 10° SSE 23:46:53 30° E 23:47:52 28° E
Cosmos 2227 Rocket 2.3 23:43:51 10° NNW 23:49:31 79° WSW 23:55:09 10° SSE
BREEZE-M DEB (TANK) 1.7 23:49:02 10° W 23:50:43 45° N 23:50:43 45° N
MOS 1 Rocket 3.6 23:47:03 10° S 23:51:56 77° WSW 23:57:08 10° NNW
Cosmos 990 Rocket 4.4 23:48:57 10° SSW 23:54:00 62° WNW 23:59:02 10° NNE
Cosmos 1825 Rocket 4.1 23:51:04 10° NNW 23:55:20 58° W 23:59:33 10° S
